GW6947 Weather Reports


time (UTC)temp
C
wind
direction
speed
KPH
gust
KPH
rain 1hr
cm
rain 24hr
cm
rain mn
cm
humidity
%
barometer
mb
20260903043739 23 147 0.0 1.6 0.00 0.00 0.00 92 1051.7
20260903043238 23 147 0.0 0.0 0.00 0.00 0.00 92 1051.8
20260903042737 23 147 0.0 0.0 0.00 0.00 0.00 92 1051.6
20260903042233 23 147 0.0 0.0 0.00 0.00 0.00 91 1051.6
20260903041729 23 147 0.0 0.0 0.00 0.00 0.00 91 1051.7
20260903041225 23 147 0.0 1.6 0.00 0.00 0.00 91 1051.5
20260903040724 23 153 1.6 1.6 0.00 0.00 0.00 91 1051.6
20260903040220 23 159 0.0 0.0 0.00 0.00 0.00 91 1051.5
20260903035716 23 159 0.0 0.0 0.00 0.00 0.00 90 1051.7
20260903035211 23 159 0.0 0.0 0.00 0.00 0.00 91 1051.4
20260903034711 23 159 0.0 0.0 0.00 0.00 0.00 91 1051.8
20260903034206 23 159 0.0 0.0 0.00 0.00 0.00 91 1051.7
20260903033702 23 159 0.0 0.0 0.00 0.00 0.00 91 1051.6
20260903033201 23 159 0.0 0.0 0.00 0.00 0.00 91 1051.7
20260903032656 24 159 0.0 0.0 0.00 0.00 0.00 90 1051.7
20260903032152 24 159 0.0 0.0 0.00 0.00 0.00 90 1051.8
20260903031648 24 159 0.0 0.0 0.00 0.00 0.00 89 1051.7
20260903031147 24 159 0.0 0.0 0.00 0.00 0.00 88 1051.9
20260903030643 24 159 0.0 0.0 0.00 0.00 0.00 88 1051.7
20260903030139 24 184 0.0 0.0 0.00 0.00 0.00 86 1051.7
20260903025634 24 184 0.0 0.0 0.00 0.00 0.00 86 1052.0
20260903025130 24 185 0.0 0.0 0.00 0.00 0.00 86 1052.0
20260903024625 24 185 0.0 0.0 0.00 0.00 0.00 86 1051.9
20260903024124 24 185 0.0 0.0 0.00 0.00 0.00 87 1051.8
20260903023620 24 185 0.0 0.0 0.00 0.00 0.00 87 1051.9
20260903023120 24 185 1.6 1.6 0.00 0.00 0.00 88 1052.0
20260903022615 24 156 0.0 1.6 0.00 0.00 0.00 89 1051.9
20260903022114 25 309 0.0 0.0 0.00 0.00 0.00 89 1051.9
20260903021614 25 309 0.0 0.0 0.00 0.00 0.00 89 1051.8
20260903021113 25 14 0.0 0.0 0.00 0.00 0.00 89 1052.0
20260903020609 25 99 0.0 0.0 0.00 0.00 0.00 89 1051.9
20260903020104 25 116 0.0 0.0 0.00 0.00 0.00 86 1051.8
20260903015559 25 12 0.0 0.0 0.00 0.00 0.00 86 1051.9
20260903015054 26 18 0.0 0.0 0.00 0.00 0.00 85 1052.1
20260903014549 26 7 0.0 0.0 0.00 0.00 0.00 82 1051.9
20260903014044 26 30 0.0 0.0 0.00 0.00 0.00 82 1052.1
20260903013543 26 16 0.0 0.0 0.00 0.00 0.00 82 1051.8
20260903013038 26 22 0.0 0.0 0.00 0.00 0.00 83 1051.8
20260903012537 26 21 0.0 0.0 0.00 0.00 0.00 82 1052.0
20260903012037 26 94 0.0 0.0 0.00 0.00 0.00 82 1051.8
20260903011536 26 84 0.0 1.6 0.00 0.00 0.00 82 1051.8
20260903011031 26 295 0.0 0.0 0.00 0.00 0.00 81 1051.6
20260903010527 27 344 0.0 0.0 0.00 0.00 0.00 79 1051.5
20260903010025 27 12 0.0 0.0 0.00 0.00 0.00 78 1051.5
20260903005525 27 310 0.0 0.0 0.00 0.00 0.00 77 1051.2
20260903005021 27 21 0.0 1.6 0.00 0.00 0.00 75 1051.6
20260903004520 28 28 1.6 1.6 0.00 0.00 0.00 74 1051.4
20260903004016 28 30 1.6 1.6 0.00 0.00 0.00 73 1051.2
20260903003512 28 28 1.6 1.6 0.00 0.00 0.00 72 1051.4
20260903003008 28 37 1.6 1.6 0.00 0.00 0.00 72 1051.4
20260903002506 28 27 1.6 1.6 0.00 0.00 0.00 69 1051.4
20260903002001 29 18 1.6 1.6 0.00 0.00 0.00 68 1051.6
20260903001456 29 88 0.0 0.0 0.00 0.00 0.00 68 1051.3
20260903000955 30 88 0.0 0.0 0.00 0.00 0.00 66 1051.3
20260903000451 30 79 1.6 1.6 0.00 0.00 0.00 62 1051.2
20260902235949 31 293 0.0 0.0 0.00 0.00 0.00 61 1051.4
20260902235444 31 6 1.6 1.6 0.00 0.00 0.00 58 1051.4
20260902234944 31 343 0.0 0.0 0.00 0.00 0.00 59 1051.4
20260902234439 32 7 1.6 1.6 0.00 0.00 0.00 54 1051.6
20260902233938 34 239 0.0 0.0 0.00 0.00 0.00 53 1051.4
20260902233432 34 239 0.0 0.0 0.00 0.00 0.00 53 1051.7
20260902232932 34 239 0.0 0.0 0.00 0.00 0.00 51 1051.5
20260902232427 33 239 0.0 0.0 0.00 0.00 0.00 51 1051.6
20260902231926 34 239 0.0 0.0 0.00 0.00 0.00 50 1051.4
20260902231422 34 242 0.0 0.0 0.00 0.00 0.00 50 1051.5
20260902230916 33 282 1.6 1.6 0.00 0.00 0.00 49 1051.5
20260902230416 34 282 1.6 1.6 0.00 0.00 0.00 49 1051.5
20260902225916 33 290 1.6 1.6 0.00 0.00 0.00 50 1051.7
20260902225411 34 283 1.6 1.6 0.00 0.00 0.00 47 1051.4
20260902224910 34 304 1.6 1.6 0.00 0.00 0.00 46 1051.6
20260902224409 34 289 1.6 3.2 0.00 0.00 0.00 47 1051.5
20260902223906 33 294 1.6 3.2 0.00 0.00 0.00 47 1051.6
20260902223407 33 298 4.8 4.8 0.00 0.00 0.00 46 1051.3
20260902222901 34 290 4.8 6.4 0.00 0.00 0.00 46 1051.8
20260902222359 34 286 3.2 4.8 0.00 0.00 0.00 49 1051.6
20260902221859 34 276 3.2 4.8 0.00 0.00 0.00 45 1051.5
20260902221359 34 285 3.2 6.4 0.00 0.00 0.00 45 1051.5
20260902220854 34 294 6.4 9.7 0.00 0.00 0.00 45 1051.8
20260902220354 34 241 0.0 6.4 0.00 0.00 0.00 47 1051.7
20260902215849 33 312 4.8 4.8 0.00 0.00 0.00 46 1051.7
20260902215344 33 320 4.8 4.8 0.00 0.00 0.00 45 1051.7
20260902214840 34 322 8.0 11.3 0.00 0.00 0.00 45 1051.8
20260902214339 34 326 6.4 12.9 0.00 0.00 0.00 46 1051.9
20260902213834 34 302 3.2 3.2 0.00 0.00 0.00 45 1051.9
20260902213330 34 295 6.4 6.4 0.00 0.00 0.00 45 1051.9
20260902212828 35 263 6.4 9.7 0.00 0.00 0.00 44 1052.0
20260902212325 35 330 1.6 3.2 0.00 0.00 0.00 46 1051.8
20260902211821 34 258 1.6 1.6 0.00 0.00 0.00 46 1052.0
20260902211317 34 289 9.7 11.3 0.00 0.00 0.00 42 1052.0
20260902210812 34 286 9.7 12.9 0.00 0.00 0.00 45 1052.2
20260902210312 34 284 3.2 6.4 0.00 0.00 0.00 48 1052.1
20260902205810 34 299 6.4 9.7 0.00 0.00 0.00 45 1052.0
20260902205306 34 349 3.2 9.7 0.00 0.00 0.00 46 1052.0
20260902204800 34 320 6.4 11.3 0.00 0.00 0.00 44 1052.2
20260902204255 35 320 9.7 12.9 0.00 0.00 0.00 44 1052.3
20260902203750 35 319 9.7 12.9 0.00 0.00 0.00 44 1052.1
20260902203250 34 289 12.9 16.1 0.00 0.00 0.00 43 1052.2
20260902202745 34 297 4.8 6.4 0.00 0.00 0.00 48 1052.2
20260902202242 35 252 6.4 9.7 0.00 0.00 0.00 44 1052.2
20260902201738 35 299 6.4 9.7 0.00 0.00 0.00 43 1052.0
20260902201237 35 270 6.4 12.9 0.00 0.00 0.00 44 1052.3
20260902200733 35 271 3.2 6.4 0.00 0.00 0.00 45 1052.2
20260902200228 35 268 8.0 9.7 0.00 0.00 0.00 43 1052.2
20260902195724 34 286 4.8 9.7 0.00 0.00 0.00 47 1052.4
20260902195223 34 213 4.8 9.7 0.00 0.00 0.00 46 1052.3
20260902194722 35 204 6.4 11.3 0.00 0.00 0.00 44 1052.4
20260902194218 35 245 8.0 11.3 0.00 0.00 0.00 44 1052.5
20260902193713 35 271 4.8 9.7 0.00 0.00 0.00 46 1052.5
20260902193208 35 288 4.8 6.4 0.00 0.00 0.00 49 1052.9
20260902192706 35 177 3.2 4.8 0.00 0.00 0.00 50 1052.9
20260902192201 34 227 6.4 9.7 0.00 0.00 0.00 48 1052.9
20260902191700 34 312 3.2 9.7 0.00 0.00 0.00 51 1052.7
20260902191155 34 285 8.0 6.4 0.00 0.00 0.00 48 1052.8
20260902190651 34 276 8.0 11.3 0.00 0.00 0.00 49 1053.0
20260902190146 34 250 4.8 6.4 0.00 0.00 0.00 48 1053.0
20260902185641 35 259 6.4 11.3 0.00 0.00 0.00 48 1053.1
20260902185137 34 50 3.2 9.7 0.00 0.00 0.00 50 1053.1
20260902184637 34 286 8.0 14.5 0.00 0.00 0.00 48 1053.1
20260902184133 34 303 12.9 16.1 0.00 0.00 0.00 45 1053.2
20260902183629 34 286 8.0 12.9 0.00 0.00 0.00 45 1053.0
20260902183125 34 215 8.0 11.3 0.00 0.00 0.00 48 1053.3
20260902182621 34 234 8.0 9.7 0.00 0.00 0.00 52 1053.3
20260902182117 34 271 3.2 4.8 0.00 0.00 0.00 51 1053.4
20260902181613 33 294 9.7 14.5 0.00 0.00 0.00 50 1053.3
20260902181113 33 351 8.0 11.3 0.00 0.00 0.00 51 1053.4
20260902180613 33 246 6.4 12.9 0.00 0.00 0.00 51 1053.3
20260902180109 34 244 6.4 14.5 0.00 0.00 0.00 51 1053.4
20260902175608 33 302 8.0 12.9 0.00 0.00 0.00 50 1053.5
20260902175104 33 295 8.0 12.9 0.00 0.00 0.00 52 1053.4
20260902174601 33 253 6.4 11.3 0.00 0.00 0.00 55 1053.5
20260902174055 33 202 3.2 16.1 0.00 0.00 0.00 53 1053.7
20260902173550 32 273 8.0 11.3 0.00 0.00 0.00 54 1053.9
20260902173045 33 278 6.4 11.3 0.00 0.00 0.00 54 1053.9
20260902172544 33 234 6.4 6.4 0.00 0.00 0.00 53 1053.8
20260902172039 33 295 8.0 11.3 0.00 0.00 0.00 52 1053.8
20260902171535 33 251 6.4 9.7 0.00 0.00 0.00 55 1054.0
20260902171031 33 228 6.4 6.4 0.00 0.00 0.00 54 1054.0
20260902170526 33 254 9.7 12.9 0.00 0.00 0.00 51 1054.0
20260902170022 33 179 4.8 6.4 0.00 0.00 0.00 53 1054.2
20260902165522 33 267 6.4 11.3 0.00 0.00 0.00 56 1054.0
20260902165021 33 204 4.8 11.3 0.00 0.00 0.00 54 1054.3
20260902164516 33 281 9.7 14.5 0.00 0.00 0.00 54 1054.1
20260902164015 33 264 9.7 12.9 0.00 0.00 0.00 56 1054.4
20260902163512 32 299 9.7 14.5 0.00 0.00 0.00 56 1054.2
20260902163010 33 287 3.2 11.3 0.00 0.00 0.00 59 1054.5
20260902162509 33 193 4.8 6.4 0.00 0.00 0.00 58 1054.3
20260902162005 33 312 6.4 9.7 0.00 0.00 0.00 58 1054.6
20260902161459 32 242 3.2 6.4 0.00 0.00 0.00 58 1054.5
20260902160955 33 287 9.7 12.9 0.00 0.00 0.00 55 1054.5
20260902160451 32 284 1.6 4.8 0.00 0.00 0.00 58 1054.5
20260902155948 32 10 1.6 6.4 0.00 0.00 0.00 58 1054.4
20260902155444 32 257 6.4 9.7 0.00 0.00 0.00 62 1054.5
20260902154937 32 299 3.2 4.8 0.00 0.00 0.00 60 1054.6
20260902154433 32 330 4.8 6.4 0.00 0.00 0.00 61 1054.6
20260902153933 32 315 6.4 11.3 0.00 0.00 0.00 59 1054.7
20260902153431 32 41 3.2 6.4 0.00 0.00 0.00 58 1054.7
20260902152927 32 288 1.6 3.2 0.00 0.00 0.00 64 1054.4
20260902152423 32 333 4.8 9.7 0.00 0.00 0.00 62 1054.7
20260902151919 32 323 6.4 6.4 0.00 0.00 0.00 59 1054.7
20260902151415 32 324 1.6 4.8 0.00 0.00 0.00 64 1054.7
20260902150914 31 355 1.6 3.2 0.00 0.00 0.00 63 1054.7
20260902150410 31 326 1.6 6.4 0.00 0.00 0.00 62 1054.5
20260902145910 31 96 0.0 1.6 0.00 0.00 0.00 65 1054.6
20260902145406 31 301 3.2 4.8 0.00 0.00 0.00 65 1054.4
20260902144901 31 324 3.2 11.3 0.00 0.00 0.00 66 1054.5
20260902144357 31 305 4.8 4.8 0.00 0.00 0.00 66 1054.5
20260902143856 31 327 1.6 3.2 0.00 0.00 0.00 68 1054.3
20260902143351 30 325 3.2 3.2 0.00 0.00 0.00 66 1054.5
20260902142847 30 212 1.6 1.6 0.00 0.00 0.00 67 1054.4
20260902142343 30 240 1.6 1.6 0.00 0.00 0.00 69 1054.6
20260902141838 29 241 1.6 4.8 0.00 0.00 0.00 69 1054.7
20260902141333 29 223 1.6 4.8 0.00 0.00 0.00 73 1054.6
20260902140833 28 293 4.8 4.8 0.00 0.00 0.00 71 1054.5
20260902140328 28 269 3.2 4.8 0.00 0.00 0.00 72 1054.3
20260902135827 28 205 1.6 4.8 0.00 0.00 0.00 74 1054.4
20260902135324 28 267 4.8 4.8 0.00 0.00 0.00 72 1054.4
20260902134822 28 297 4.8 6.4 0.00 0.00 0.00 73 1054.5
20260902134318 27 265 3.2 6.4 0.00 0.00 0.00 75 1054.7
20260902133813 27 333 3.2 4.8 0.00 0.00 0.00 74 1054.5
20260902133313 27 241 3.2 6.4 0.00 0.00 0.00 75 1054.4
20260902132808 27 273 3.2 3.2 0.00 0.00 0.00 77 1054.3
20260902132306 27 187 1.6 3.2 0.00 0.00 0.00 79 1054.5
20260902131759 26 278 1.6 3.2 0.00 0.00 0.00 79 1054.3
20260902131255 26 223 1.6 3.2 0.00 0.00 0.00 81 1054.5
20260902130755 26 255 1.6 1.6 0.00 0.00 0.00 80 1054.4
20260902130251 26 243 1.6 3.2 0.00 0.00 0.00 81 1054.6
20260902125746 26 212 3.2 3.2 0.00 0.00 0.00 81 1054.5
20260902125242 25 230 1.6 3.2 0.00 0.00 0.00 82 1054.4
20260902124738 25 285 1.6 3.2 0.00 0.00 0.00 82 1054.5
20260902124233 25 275 1.6 1.6 0.00 0.00 0.00 83 1054.2
20260902123728 25 275 0.0 0.0 0.00 0.00 0.00 82 1054.3
20260902123224 25 279 0.0 0.0 0.00 0.00 0.00 81 1054.3
20260902122723 25 160 0.0 0.0 0.00 0.00 0.00 83 1054.1
20260902122219 25 255 0.0 0.0 0.00 0.00 0.00 82 1054.3
20260902121719 25 134 0.0 0.0 0.00 0.00 0.00 82 1054.3
20260902121214 25 25 0.0 0.0 0.00 0.00 0.00 83 1054.1
20260902120710 25 281 0.0 0.0 0.00 0.00 0.00 85 1054.0
20260902120206 23 263 0.0 0.0 0.00 0.00 0.00 87 1054.0
20260902115706 23 297 0.0 0.0 0.00 0.00 0.00 88 1054.0
20260902115202 23 303 0.0 0.0 0.00 0.00 0.00 89 1053.9
20260902114658 22 290 0.0 0.0 0.00 0.00 0.00 90 1053.7
20260902114153 22 297 0.0 0.0 0.00 0.00 0.00 93 1053.8
20260902113648 22 303 0.0 0.0 0.00 0.00 0.00 93 1053.8
20260902113144 21 302 0.0 0.0 0.00 0.00 0.00 93 1053.9
20260902112643 21 324 0.0 0.0 0.00 0.00 0.00 94 1053.7
20260902112141 21 298 0.0 0.0 0.00 0.00 0.00 94 1053.5
20260902111642 21 302 0.0 0.0 0.00 0.00 0.00 94 1053.4
20260902111138 21 280 0.0 0.0 0.00 0.00 0.00 94 1053.7
20260902110633 21 293 0.0 0.0 0.00 0.00 0.00 94 1053.7
20260902110129 21 268 0.0 0.0 0.00 0.00 0.00 93 1053.5
20260902105629 21 245 0.0 0.0 0.00 0.00 0.00 93 1053.5
20260902105124 21 143 0.0 0.0 0.00 0.00 0.00 93 1053.3
20260902104619 21 133 0.0 0.0 0.00 0.00 0.00 94 1053.5
20260902104120 21 120 0.0 0.0 0.00 0.00 0.00 94 1053.5
20260902103619 21 110 0.0 0.0 0.00 0.00 0.00 95 1053.4
20260902103115 21 105 0.0 0.0 0.00 0.00 0.00 95 1053.3
20260902102611 21 154 0.0 0.0 0.00 0.00 0.00 95 1053.2
20260902102108 21 215 0.0 0.0 0.00 0.00 0.00 95 1053.3
20260902101603 21 270 0.0 0.0 0.00 0.00 0.00 96 1053.3
20260902101102 21 251 0.0 0.0 0.00 0.00 0.00 96 1053.2
20260902100557 21 250 0.0 0.0 0.00 0.00 0.00 96 1053.2
20260902100052 21 311 0.0 0.0 0.00 0.00 0.00 96 1053.2
20260902095552 21 354 0.0 0.0 0.00 0.00 0.00 96 1053.2
20260902095051 21 80 0.0 0.0 0.00 0.00 0.00 96 1053.0
20260902094546 21 324 0.0 0.0 0.00 0.00 0.00 96 1053.1
20260902094042 21 352 0.0 0.0 0.00 0.00 0.00 96 1053.1
20260902093537 21 306 0.0 0.0 0.00 0.00 0.00 96 1053.0
20260902093036 21 270 0.0 0.0 0.00 0.00 0.00 95 1053.3
20260902092531 21 299 0.0 0.0 0.00 0.00 0.00 96 1052.9
20260902092026 21 283 0.0 0.0 0.00 0.00 0.00 96 1053.1
20260902091522 21 7 0.0 0.0 0.00 0.00 0.00 96 1053.0
20260902091018 21 7 0.0 0.0 0.00 0.00 0.00 95 1053.0
20260902090514 21 25 0.0 0.0 0.00 0.00 0.00 95 1052.9
20260902090013 21 27 0.0 0.0 0.00 0.00 0.00 96 1052.9
20260902085507 21 311 0.0 0.0 0.00 0.00 0.00 95 1053.0
20260902085008 21 359 0.0 0.0 0.00 0.00 0.00 95 1052.9
20260902084504 21 27 0.0 0.0 0.00 0.00 0.00 95 1052.8
20260902083959 21 25 0.0 0.0 0.00 0.00 0.00 95 1053.2
20260902083454 22 17 0.0 0.0 0.00 0.00 0.00 95 1052.8
20260902082949 21 52 0.0 0.0 0.00 0.00 0.00 95 1052.9
20260902082444 22 322 0.0 0.0 0.00 0.00 0.00 95 1052.8
20260902081941 22 326 0.0 0.0 0.00 0.00 0.00 95 1053.0
20260902081438 21 326 0.0 0.0 0.00 0.00 0.00 95 1053.0
20260902080938 22 337 0.0 0.0 0.00 0.00 0.00 95 1052.8
20260902080434 22 334 0.0 0.0 0.00 0.00 0.00 95 1052.9
20260902075933 21 334 0.0 0.0 0.00 0.00 0.00 95 1052.8
20260902075430 21 341 0.0 0.0 0.00 0.00 0.00 95 1052.8
20260902074925 22 356 0.0 0.0 0.00 0.00 0.00 95 1052.5
20260902074421 22 141 0.0 0.0 0.00 0.00 0.00 96 1052.7
20260902073920 21 141 0.0 0.0 0.00 0.00 0.00 96 1052.7
20260902073417 21 141 0.0 0.0 0.00 0.00 0.00 96 1052.8
20260902072913 21 188 0.0 0.0 0.00 0.00 0.00 96 1052.9
20260902072408 21 142 0.0 0.0 0.00 0.00 0.00 95 1052.3
20260902071905 21 142 0.0 0.0 0.00 0.00 0.00 95 1052.5
20260902071404 21 142 0.0 0.0 0.00 0.00 0.00 95 1052.3
20260902070901 21 142 0.0 0.0 0.00 0.00 0.00 95 1052.4
20260902070356 21 142 0.0 0.0 0.00 0.00 0.00 95 1052.5
20260902065854 21 299 0.0 0.0 0.00 0.00 0.00 95 1052.5
20260902065350 21 285 0.0 0.0 0.00 0.00 0.00 94 1052.7
20260902064845 22 18 0.0 0.0 0.00 0.00 0.00 94 1052.9
20260902064341 22 18 0.0 0.0 0.00 0.00 0.00 94 1052.5
20260902063837 21 18 0.0 0.0 0.00 0.00 0.00 94 1052.7
20260902063337 22 34 3.2 3.2 0.00 0.00 0.00 94 1052.5
20260902062837 22 31 3.2 1.6 0.00 0.00 0.00 95 1052.9
20260902062337 22 27 0.0 0.0 0.00 0.00 0.00 95 1052.8
20260902061836 21 346 0.0 0.0 0.00 0.00 0.00 95 1052.7
20260902061332 21 7 0.0 0.0 0.00 0.00 0.00 95 1053.0
20260902060828 21 273 0.0 0.0 0.00 0.00 0.00 94 1053.1
20260902060323 21 267 0.0 0.0 0.00 0.00 0.00 94 1053.1
20260902055819 21 287 3.2 3.2 0.00 0.00 0.00 93 1053.1
20260902055315 22 264 0.0 0.0 0.00 0.00 0.00 93 1053.0
20260902054815 22 103 0.0 0.0 0.00 0.00 0.00 92 1052.8
20260902054311 22 21 0.0 0.0 0.00 0.00 0.00 93 1052.8
20260902053806 22 44 1.6 1.6 0.00 0.00 0.00 93 1053.1
20260902053301 22 43 3.2 3.2 0.00 0.00 0.00 94 1052.9
20260902052800 22 33 0.0 0.0 0.00 0.00 0.00 94 1052.8
20260902052256 22 3 0.0 0.0 0.00 0.00 0.00 94 1052.9
20260902051756 22 3 0.0 0.0 0.00 0.00 0.00 94 1052.5
20260902051255 22 2 0.0 0.0 0.00 0.00 0.00 94 1053.0
20260902050750 22 2 0.0 0.0 0.00 0.00 0.00 94 1052.9
20260902050245 22 2 0.0 0.0 0.00 0.00 0.00 95 1052.7
20260902045745 22 344 0.0 0.0 0.00 0.00 0.00 94 1052.8
20260902045241 22 335 0.0 0.0 0.00 0.00 0.00 94 1052.7
20260902044737 22 335 0.0 0.0 0.00 0.00 0.00 94 1052.5
20260902044232 22 335 0.0 0.0 0.00 0.00 0.00 94 1052.8